Weather History for KHZY - June, 2013

Change the Weather History Date:

Saturday, June 29, 2013

  Actual Average (KYNG) Record (KYNG)
Temperature  
Mean Temperature 67 °F 70 °F  
Max Temperature 73 °F 81 °F 99 °F (1933)
Min Temperature 62 °F 59 °F 47 °F (1992)
Degree Days  
Heating Degree Days 0 1  
Month to date heating degree days 68  
Since 1 June heating degree days 68  
Since 1 July heating degree days 6348  
Cooling Degree Days 2 5  
Month to date cooling degree days 103  
Year to date cooling degree days 142  
Since 1 June cooling degree days 103  
Growing Degree Days 17 (Base 50)    
Moisture  
Dew Point 61 °F    
Average Humidity 85    
Maximum Humidity 94    
Minimum Humidity 69    
Precipitation  
Precipitation 1.05 in 0.13 in - ()
Month to date precipitation 3.75  
Year to date precipitation 18.54  
Snow  
Snow 0.00 in 0.00 in - ()
Month to date snowfall 0.0  
Since 1 June snowfall 0.0  
Since 1 July snowfall 62.7  
Snow Depth -    
Sea Level Pressure  
Sea Level Pressure 29.60 in    
Wind  
Wind Speed 5 mph (West)    
Max Wind Speed 12 mph    
Max Gust Speed -    
Visibility 6 miles    
Events Rain    
T = Trace of Precipitation, MM = Missing Value Source: NWS Daily Summary

Daily Weather History Graph

Daily Weather History Graph

Search for Another Location

Airport or City:

Trip Planner

Search our weather history database for the weather conditions in past years. The results will help you decide how hot, cold, wet, or windy it might be!

Date:

Astronomy

Jun. 29, 2013 Rise Set
Actual Time 5:50 AM EDT 9:01 PM EDT
Civil Twilight 5:16 AM EDT 9:35 PM EDT
Nautical Twilight 4:32 AM EDT 10:19 PM EDT
Astronomical Twilight 3:40 AM EDT 11:12 PM EDT
Moon 12:23 AM EDT (6/29) 1:07 PM EDT (6/29)
Length of Visible Light 16h 18m
Length of Day
15h 10m
Waning Gibbous, 56% of the Moon is Illuminated
Jun 29
Waning Gibbous
Jun 30
Last Quarter
Jul 8
New
Jul 15
First Quarter
Jul 22
Full

Hourly Weather History & Observations

Time (EDT) Temp. Dew Point Humidity Pressure Visibility Wind Dir Wind Speed Gust Speed Precip Events Conditions
12:53 AM 64.0 °F 61.0 °F 90% 29.52 in 9.0 mi SW 3.5 mph - 0.03 in Rain Light Rain
1:53 AM 64.0 °F 61.0 °F 90% 29.52 in 6.0 mi Calm Calm - 0.01 in Rain Light Rain
2:00 AM 64.4 °F 60.8 °F 88% 29.54 in 6.0 mi SW 3.5 mph - 0.01 in Rain Light Rain
2:17 AM 64.4 °F 60.8 °F 88% 29.54 in 7.0 mi WSW 3.5 mph - 0.03 in Rain Light Rain
2:26 AM 64.4 °F 60.8 °F 88% 29.54 in 2.0 mi WSW 5.8 mph - 0.11 in Rain Heavy Rain
2:29 AM 64.4 °F 60.8 °F 88% 29.54 in 2.0 mi WSW 5.8 mph - 0.13 in Rain Heavy Rain
2:40 AM 64.4 °F 60.8 °F 88% 29.54 in 2.0 mi SW 5.8 mph - 0.19 in Rain Heavy Rain
2:49 AM 64.4 °F 60.8 °F 88% 29.54 in 3.0 mi SW 9.2 mph - 0.24 in Rain Rain
2:53 AM 64.0 °F 61.0 °F 90% 29.52 in 1.5 mi SW 8.1 mph - 0.30 in Rain Heavy Rain
3:02 AM 64.4 °F 60.8 °F 88% 29.53 in 2.0 mi SW 6.9 mph - 0.05 in Rain Heavy Rain
3:11 AM 64.4 °F 60.8 °F 88% 29.53 in 4.0 mi WSW 4.6 mph - 0.06 in Rain Light Rain
3:18 AM 64.4 °F 60.8 °F 88% 29.53 in 5.0 mi WSW 5.8 mph - 0.06 in Rain Light Rain
3:53 AM 64.0 °F 61.0 °F 90% 29.52 in 5.0 mi SW 4.6 mph - 0.11 in Rain Rain
4:08 AM 64.4 °F 60.8 °F 88% 29.54 in 1.8 mi WSW 6.9 mph - 0.09 in Rain Heavy Rain
4:27 AM 64.4 °F 60.8 °F 88% 29.54 in 2.5 mi SW 5.8 mph - 0.21 in Rain Heavy Rain
4:46 AM 64.4 °F 60.8 °F 88% 29.54 in 3.0 mi SW 8.1 mph - 0.28 in Rain Heavy Rain
4:53 AM 64.0 °F 60.1 °F 87% 29.52 in 3.0 mi SW 6.9 mph - 0.30 in Rain Rain
5:07 AM 62.6 °F 60.8 °F 94% 29.54 in 5.0 mi SW 5.8 mph - 0.02 in Rain Light Rain
5:22 AM 64.4 °F 60.8 °F 88% 29.54 in 8.0 mi WSW 6.9 mph - 0.02 in   Overcast
5:29 AM 64.4 °F 60.8 °F 88% 29.54 in 5.0 mi WSW 6.9 mph - 0.03 in Rain Light Rain
5:53 AM 64.0 °F 61.0 °F 90% 29.54 in 9.0 mi WSW 5.8 mph - 0.04 in   Overcast
6:30 AM 64.4 °F 60.8 °F 88% 29.56 in 9.0 mi WSW 11.5 mph - 0.00 in   Overcast
6:37 AM 64.4 °F 60.8 °F 88% 29.56 in 9.0 mi WSW 9.2 mph - 0.00 in Rain Light Rain
6:53 AM 63.0 °F 60.1 °F 90% 29.55 in 8.0 mi WSW 8.1 mph - 0.01 in Rain Light Rain
7:03 AM 62.6 °F 60.8 °F 94% 29.56 in 1.8 mi WSW 8.1 mph - 0.04 in Rain Rain
7:07 AM 62.6 °F 60.8 °F 94% 29.57 in 1.0 mi WSW 8.1 mph - 0.06 in Rain Heavy Rain
7:14 AM 62.6 °F 60.8 °F 94% 29.57 in 1.5 mi WSW 8.1 mph - 0.08 in Rain Rain
7:22 AM 62.6 °F 60.8 °F 94% 29.57 in 2.0 mi West 6.9 mph - 0.10 in Rain Rain
7:26 AM 62.6 °F 60.8 °F 94% 29.57 in 1.8 mi West 8.1 mph - 0.13 in Rain Heavy Rain
7:34 AM 62.6 °F 60.8 °F 94% 29.57 in 2.0 mi West 5.8 mph - 0.14 in Rain Rain
7:37 AM 62.6 °F 60.8 °F 94% 29.57 in 3.0 mi West 8.1 mph - 0.15 in Rain Light Rain
7:45 AM 64.4 °F 60.8 °F 88% 29.58 in 7.0 mi West 6.9 mph - 0.15 in Rain Light Rain
7:53 AM 64.0 °F 61.0 °F 90% 29.57 in 1.5 mi West 6.9 mph - 0.19 in Rain Heavy Rain
8:06 AM 64.4 °F 60.8 °F 88% 29.58 in 3.0 mi West 5.8 mph - 0.03 in Rain Light Rain
8:38 AM 64.4 °F 60.8 °F 88% 29.59 in 10.0 mi West 4.6 mph - 0.04 in   Overcast
8:45 AM 64.4 °F 60.8 °F 88% 29.59 in 10.0 mi West 5.8 mph - 0.04 in   Overcast
8:53 AM 64.9 °F 61.0 °F 87% 29.58 in 10.0 mi WNW 4.6 mph - 0.04 in   Overcast
9:53 AM 66.0 °F 61.0 °F 84% 29.60 in 10.0 mi Calm Calm - N/A   Overcast
10:53 AM 66.9 °F 61.0 °F 81% 29.60 in 10.0 mi North 3.5 mph - 0.00 in Rain Light Rain
11:12 AM 66.2 °F 60.8 °F 83% 29.62 in 10.0 mi NW 3.5 mph - 0.00 in   Overcast
11:31 AM 68.0 °F 60.8 °F 78% 29.62 in 10.0 mi Calm Calm - 0.00 in   Overcast
11:53 AM 69.1 °F 61.0 °F 75% 29.60 in 10.0 mi NNW 3.5 mph - 0.00 in   Overcast
12:00 PM 69.8 °F 60.8 °F 73% 29.62 in 10.0 mi NNW 3.5 mph - N/A   Overcast
12:07 PM 69.8 °F 60.8 °F 73% 29.62 in 10.0 mi North 4.6 mph - N/A   Overcast
12:38 PM 71.6 °F 60.8 °F 69% 29.62 in 10.0 mi Variable 5.8 mph - N/A   Overcast
12:53 PM 71.1 °F 61.0 °F 70% 29.61 in 10.0 mi North 4.6 mph - N/A   Overcast
1:08 PM 71.6 °F 60.8 °F 69% 29.62 in 10.0 mi Calm Calm - N/A   Overcast
1:25 PM 71.6 °F 60.8 °F 69% 29.62 in 10.0 mi NW 4.6 mph - N/A   Overcast
1:53 PM 71.1 °F 61.0 °F 70% 29.60 in 10.0 mi Variable 4.6 mph - N/A   Overcast
2:33 PM 71.6 °F 60.8 °F 69% 29.63 in 10.0 mi NNW 3.5 mph - N/A   Overcast
2:53 PM 71.1 °F 61.0 °F 70% 29.62 in 10.0 mi NW 3.5 mph - N/A   Mostly Cloudy
3:53 PM 72.0 °F 62.1 °F 71% 29.62 in 10.0 mi Calm Calm - N/A   Mostly Cloudy
4:43 PM 71.6 °F 60.8 °F 69% 29.64 in 10.0 mi NNE 4.6 mph - N/A   Overcast
4:53 PM 70.0 °F 61.0 °F 73% 29.63 in 10.0 mi Variable 3.5 mph - 0.00 in Rain Light Rain
5:06 PM 69.8 °F 62.6 °F 78% 29.65 in 10.0 mi NE 4.6 mph - 0.00 in Rain Light Rain
5:53 PM 70.0 °F 62.1 °F 76% 29.64 in 10.0 mi North 3.5 mph - 0.00 in   Mostly Cloudy
6:53 PM 69.1 °F 61.0 °F 75% 29.66 in 10.0 mi Calm Calm - 0.02 in   Overcast
7:53 PM 68.0 °F 62.1 °F 81% 29.67 in 10.0 mi Calm Calm - N/A   Partly Cloudy
8:53 PM 66.9 °F 63.0 °F 87% 29.69 in 9.0 mi Calm Calm - N/A   Clear
9:53 PM 64.9 °F 62.1 °F 90% 29.71 in 7.0 mi Calm Calm - N/A   Clear
10:53 PM 64.0 °F 60.1 °F 87% 29.71 in 5.0 mi Calm Calm - N/A   Mostly Cloudy
11:10 PM 64.4 °F 60.8 °F 88% 29.72 in 5.0 mi Calm Calm - N/A   Overcast
11:25 PM 62.6 °F 60.8 °F 94% 29.73 in 1.8 mi Calm Calm - N/A   Overcast
11:38 PM 62.6 °F 60.8 °F 94% 29.73 in 2.0 mi Calm Calm - N/A   Mostly Cloudy
11:51 PM 62.6 °F 60.8 °F 94% 29.73 in 3.0 mi Calm Calm - N/A   Mostly Cloudy
11:53 PM 63.0 °F 60.1 °F 90% 29.72 in 2.0 mi Calm Calm - N/A   Mostly Cloudy
11:56 PM 62.6 °F 60.8 °F 94% 29.73 in 1.0 mi Calm Calm - N/A   Mostly Cloudy